Back to catalog

STARLINK-5611

AliveCommunicationsVLEO
NORAD 55761·PAYLOAD·🇺🇸 United States

Launched Mar 3, 2023 from Vandenberg Space Force Base

Loading…

Next Passes (next 24 hours)

TLE

FreshSource: CelesTrak SupGP

Epoch: Sep 14, 2026, 13:17 UTC

1 55761C 23028W   26257.55395833  .00029142  00000+0  24419-2 0  2578
2 55761  69.9997 108.4500 0002643 264.2602 273.7042 14.98321033    10

Track STARLINK-5611 in real time with AllMySat

Download on the App Store